sat.trackr.live / text

‹ back to catalog

GALAXY 33 (G-33)

NORAD 54026 · 2022-128A

PAYLOAD ACTIVE UNKNOWN

§ Identity

Operator
Country
ITSO
Launch date
2022-10-08
Launch site
AFETR
Launch vehicle
Mass (kg)
RCS (m²)

Purposes: comms

External: N2YO · Heavens-Above · Gunter

§ Orbital elements

Epoch: 2026-05-24T23:41:20.554080Z

Period
1,436.08 min
Inclination
0.0381°
Eccentricity
0.0001911
Mean motion
1.00272659 rev/d
Perigee alt
35,778.3 km
Apogee alt
35,794.4 km
Semi-major
42,164.5 km
B*
0.0000e+0
RAAN
86.5318°
Arg perigee
337.4842°
Mean anomaly
40.8987°
Rev number
1,351

§ Raw data

GALAXY 33 (G-33)1 54026U 22128A   26144.98704345  .00000076  00000+0  00000+0 0  99902 54026   0.0381  86.5318 0001911 337.4842  40.8987  1.00272659 13513

JSON: /api/v1/satellites/54026 · /tle

For live sub-satellite position, see the globe view (requires WebGL).

§ Visibility from observer

Set your observer location to see the next 7 days of passes ≥ 10°. The values pass through the URL so the page stays shareable.

No JS? Fill the form by hand. The geolocation button needs JavaScript.